This demonstration page uses our WeatherBlox Daily Observations layout. Learn more.

Left ArrowRight Arrow

34.74481, -87.66753

Hourly Observations for October 18, 2019

Temp ( °F °C ) Dew Point ( °F °C ) Humidity (%) Winds ( mph kmh ) Pressure ( in mb ) Visibility ( mi km ) Precip ( " mm )
12:53 am 00:53 Clear 46 7.8 42 5.6 86 86 Calm 30.02 1017 10 16 0.00 0.00
1:53 am 01:53 Clear 45 7.2 42 5.6 90 90 Calm 30.02 1017 10 16 0.00 0.00
2:53 am 02:53 Clear 45 7.2 41 5 86 86 Calm 30.00 1016 10 16 0.00 0.00
3:53 am 03:53 Clear 43 6.1 40 4.4 89 89 Calm 30.00 1016 10 16 0.00 0.00
4:53 am 04:53 Clear 43 6.1 39 3.9 86 86 Calm 29.99 1016 10 16 0.00 0.00
5:53 am 05:53 Clear 43 6.1 39 3.9 86 86 Calm 30.01 1016 10 16 0.00 0.00
6:53 am 06:53 Clear 42 5.6 39 3.9 89 89 Calm 30.02 1017 10 16 0.00 0.00
7:53 am 07:53 Sunny 49 9.4 43 6.1 80 80 ENE 6 9 30.02 1017 10 16 0.00 0.00
8:53 am 08:53 Sunny 54 12.2 45 7.2 72 72 ENE 3 6 30.03 1017 10 16 0.00 0.00
9:53 am 09:53 Sunny 60 15.6 42 5.6 52 52 E 10 17 30.03 1017 10 16 0.00 0.00
10:53 am 10:53 Sunny 64 17.8 40 4.4 41 41 E 8 13 30.02 1017 10 16 0.00 0.00
11:53 am 11:53 Sunny 66 18.9 38 3.3 36 36 E 9 15 30.01 1016 10 16 0.00 0.00
12:53 pm 12:53 Sunny 67 19.4 37 2.8 33 33 ESE 8 13 29.98 1015 10 16 0.00 0.00
1:53 pm 13:53 Sunny 69 20.6 38 3.3 32 32 E 7 11 29.96 1015 10 16 0.00 0.00
2:53 pm 14:53 Sunny 69 20.6 37 2.8 31 31 VRB 6 9 29.94 1014 10 16 0.00 0.00
3:53 pm 15:53 Sunny 68 20 38 3.3 33 33 E 7 11 29.93 1014 10 16 0.00 0.00
4:53 pm 16:53 Sunny 67 19.4 40 4.4 37 37 E 7 11 29.92 1013 10 16 0.00 0.00
5:53 pm 17:53 Sunny 64 17.8 43 6.1 46 46 S 3 6 29.93 1013 10 16 0.00 0.00
6:53 pm 18:53 Clear 58 14.4 46 7.8 65 65 Calm 29.91 1013 10 16 0.00 0.00
7:53 pm 19:53 Clear 56 13.3 48 8.9 75 75 Calm 29.90 1013 10 16 0.00 0.00
8:53 pm 20:53 Clear 54 12.2 46 7.8 75 75 E 5 7 29.89 1012 10 16 0.00 0.00
9:53 pm 21:53 Clear 55 12.8 44 6.7 67 67 ESE 3 6 29.88 1012 10 16 0.00 0.00
10:53 pm 22:53 Clear 53 11.7 45 7.2 74 74 Calm 29.89 1012 10 16 0.00 0.00
11:53 pm 23:53 Clear 51 10.6 45 7.2 80 80 Calm 29.89 1012 10 16 0.00 0.00

Powered by AerisWeather